Погода в Яндаре

Россия / Республика Ингушетия     43°16′25″N   44°54′44″E
темп.,
°C
ветер,
м/с
пор.,
м/с
влажн.,
%
обл.,
%
осадки,
мм/ч
давл.,
гПа
погр.,
м
2 марта, вт
вт200:00−1юз1188100 0.0 102921
03:00−1ююз1186100 0.0 102921
06:00−1ююв008843 0.0 103021
09:00+3ссз116722 0.0 1029307
12:00+6ссв21550 0.0 10271012
15:00+6ссв215313 0.0 10251220
18:00+3ссв126954 0.0 102522
21:00+1ссз017528 0.0 102622
3 марта, ср
ср300:00+1ююз11770 0.0 102422
03:000всв11760 0.0 102321
06:00−1вюв11820 0.0 102221
09:00+2в236534 0.0 1020386
12:00+4всв436488 0.0 1019881
15:00+4в226894 0.0 1018630
18:00+2сз238064 0.1 102070
21:00+1зсз498082 1.2 1024789
4 марта, чт
чт400:000зсз3597100 2.0 1026308
03:00−2з3686100 3.2 1027343
06:00−3юз239094 0.1 102881
09:000сз127594 0.1 1028598
12:00+3всв226655 0.0 1026648
15:00+4в235627 0.0 1024680
18:00+1юв12750 0.0 102522
21:000ююв11770 0.0 102621
5 марта, пт
пт500:00−1ююв11770 0.0 102421
03:00−1ю11730 0.0 102321
06:00−1ююз11720 0.0 102221
09:00+3в12570 0.0 1021289
12:00+6в33490 0.0 1019571
15:00+8вюв23480 0.0 1019514
18:00+4юв12650 0.0 102022
21:00+2ю11770 0.0 102222
6 марта, сб
сб600:00+1ююз11730 0.0 102122
03:00+2ю11630 0.0 102022
06:00+2юз12560 0.0 102022
09:00+8зюз12408 0.0 1018133
12:00+13всв22260 0.0 1016434
15:00+14в462316 0.0 1014782
18:00+8юв2242100 0.0 101424
21:00+7ююз2252100 0.0 101531